Location: Barcelona
(41.3829°N, 2.1774°E)
Time: 12:20:00
(UTC+00:00)

ISS - Pass Details

Date: 07 May 2025
Orbit: 416 x 419 km, 51.6° (Epoch: 14 May)

Event Time Altitude Azimuth Distance (km) Brightness Sun altitude
Rises 03:23:37 0° 308° (NW) 2,361 -0.1 -13.3°
Reaches altitude 10° 03:25:45 10° 313° (NW) 1,495 -1.1 -13.0°
Maximum altitude 03:29:03 52° 31° (NNE) 524 -2.9 -12.5°
Drops below altitude 10° 03:32:19 10° 109° (ESE) 1,489 -0.5 -12.0°
Sets 03:34:27 0° 115° (ESE) 2,350 0.5 -11.7°
